Weather in Hagen

Germany     51°21′23″N   7°28′45″E
temp.,
°C
wind,
m/s
gust,
m/s
humid.,
%
clouds,
%
prec.,
mm/h
press.,
hPa
HPBL,
m
19 april, mon
mon1923:00+6ne1186100 0.1 102110
02:00+6nw1196100 0.6 102019
05:00+6n13100100 1.1 1019118
08:00+6ene2498100 7.8 1020213
11:00+10e137594 0.2 10191130
14:00+10e1262100 0.4 1019643
17:00+10nne117391 0.1 101843
20:00+9ene238091 0.3 101951
20 april, tue
tue2023:00+5ese22906 0.0 102012
02:00+6se118398 0.0 101923
05:00+4se11895 0.0 101910
08:00+7ese11795 0.0 101941
11:00+13nne225793 0.0 10181040
14:00+13nne225726 0.1 10171030
17:00+14nne225599 0.1 10161180
20:00+11ne247399 0.1 101679
21 april, wed
wed2123:00+9ne11746 0.0 101711
02:00+6sse00886 0.0 101710
05:00+7sw118286 0.0 101610
08:00+8nw1181100 0.0 101752
11:00+10nw3566100 0.0 1018976
14:00+13nnw454764 0.1 10171583
17:00+9n366898 0.1 1018984
20:00+7n47565 0.1 1019876
22 april, thu
thu2223:00+3nne387999 0.0 1021412
02:000n2288100 0.0 102230
05:000nw1287100 0.0 102237
08:00+2nw287583 0.0 1022502
11:00+6nw5758100 0.1 10221508
14:00+6wnw5761100 0.1 10221325
17:00+6nw588094 0.8 10221153
20:00+5nw410825 1.3 1023606
23 april, fri
fri2323:000nnw28925 0.0 1025183
02:00−1nw22975 0.0 102618
05:00−2wnw119829 0.0 102610
08:00+1wnw129465 0.0 1027196
11:00+7nnw24575 0.0 1027969
14:00+11n33435 0.0 10261352
17:00+12n23405 0.0 10241462
20:00+7ne25715 0.0 1025109